Regional Weather Roundup
Issued by NWS Cleveland, OH

Home | Current Version | Previous Version | Text Only | Print | Product List | Glossary Off
Versions: 1 2 3 4 5 6 7 8 9 10 11 12 13 14 15 16 17 18 19 20 21 22 23 24 25 26 27 28 29 30 31 32 33 34 35 36 37 38 39 40 41 42 43 44 45 46 47 48 49 50

598
ASUS41 KCLE 270300
RWRCLE
OHIO REGIONAL WEATHER ROUNDUP
NATIONAL WEATHER SERVICE WILMINGTON, OH
1100 PM EDT FRI MAY 26 2017

NOTE: "FAIR" INDICATES FEW OR NO CLOUDS BELOW 12,000 FEET WITH NO
SIGNIFICANT WEATHER AND/OR OBSTRUCTIONS TO VISIBILITY.

OHZ001>008-015>018-024>027-034-035-043-044-270400-
   NORTHWEST OHIO

CITY           SKY/WX    TMP DP  RH WIND       PRES   REMARKS
DEFIANCE       LGT RAIN  61  59  93 E5        29.84F
FINDLAY        LGT RAIN  65  56  72 E5        29.85S
TOLEDO EXPRESS LGT RAIN  62  61  96 E5        29.85F
TOLEDO EXEC    FAIR      63  57  81 E7        29.87F
LIMA           LGT RAIN  63  59  87 SE12      29.84F
$$

OHZ009>014-019>023-028>033-038-089-270400-
   NORTHEAST OHIO

CITY           SKY/WX    TMP DP  RH WIND       PRES   REMARKS
CLE-HOPKINS    FAIR      61  52  72 CALM      29.92R
CLE-LAKEFRONT  FAIR      62  52  69 E3        29.89S
CUY CO. ARPT   MOCLDY    61  54  77 SE6       29.91S
LORAIN-ELYRIA  FAIR      58  51  78 SE3       29.90S
ASHTABULA      FAIR      52  52 100 SE3       29.93R
AKRON-CANTON   FAIR      59  52  77 SE6       29.92S
WOOSTER        NOT AVBL
MANSFIELD      FAIR      60  57  89 SE6       29.91R
YOUNGSTOWN     MOCLDY    55  50  83 NE5       29.92S
$$

OHZ042-051>053-060>062-070>072-077>081-270400-
  SOUTHWEST OHIO

CITY           SKY/WX    TMP DP  RH WIND       PRES   REMARKS
CINC-COVINGTON CLOUDY    73  63  70 S10       29.87R
CINC-LUNKEN    CLOUDY    71  65  81 S6        29.87R
HAMILTON       CLOUDY    75  62  64 VRB5      29.87R
DAYTON         TSTM      66  63  88 W18       29.95R FOG
WRIGHT-PAT AFB TSTM      70  61  73 CALM      29.86S
DAYTON GENERAL TSTM      71  59  65 S6        29.88R
WILMINGTON     CLOUDY    69  61  75 S10       29.87S
$$

OHZ036-037-039>041-045>050-054>059-063>069-073>076-082>088-270400-
  CENTRAL AND SOUTHEAST OHIO

CITY           SKY/WX    TMP DP  RH WIND       PRES   REMARKS
COLUMBUS       MOCLDY    66  58  75 CALM      29.89R
OSU AIRPORT    MOCLDY    65  58  78 NE3       29.89R
BOLTON FIELD   NOT AVBL
RICKENBACK AFB NOT AVBL
NEWARK         FAIR      60  56  86 CALM      29.89R
MARION         FAIR      62  56  80 S3        29.89R
LANCASTER      FAIR      64  58  80 CALM      29.90R
ZANESVILLE     FAIR      64  57  78 CALM      29.91R
NEW PHILLY     FAIR      59  57  93 SE3       29.92S
$$




USA.gov is the U.S. government's official web portal to all federal, state and local government web resources and services.